Location: Corralito
(10.2667°N, 66.9500°W)
Time: 23:39:53
(UTC+00:00)

YAOGAN 1 - Visible Passes

Search period start: 04 December 2023 00:00
Search period end: 14 December 2023 00:00
Orbit: 614 x 616 km, 97.8° (Epoch: 04 December)

Date Brightness Start Highest point End Pass type
(mag) Time Alt. Az. Time Alt. Az. Time Alt. Az.
05 Dec 4.0 00:02:41 10° SSW 00:06:39 37° W 00:08:58 21° NW visible
05 Dec 4.1 22:44:03 10° ESE 22:46:32 15° ENE 22:47:50 13° NE visible
06 Dec 4.9 00:18:54 10° SSW 00:22:15 22° W 00:24:53 13° NW visible
06 Dec 3.5 22:58:35 10° SE 23:02:04 25° ENE 23:03:45 19° NE visible
07 Dec 5.5 00:35:43 10° SW 00:37:52 14° W 00:40:00 10° WNW visible
07 Dec 2.9 23:13:36 10° SSE 23:17:37 40° ENE 23:19:40 24° NNE visible
08 Dec 2.4 23:28:55 10° SSE 23:33:11 70° ENE 23:35:36 25° N visible
09 Dec 2.8 23:44:30 10° S 23:48:45 68° WSW 23:51:32 21° NNW visible
11 Dec 3.8 00:00:19 10° S 00:04:20 39° W 00:07:27 15° NW visible
11 Dec 4.2 22:41:57 10° ESE 22:44:13 14° ENE 22:46:20 10° NE visible
12 Dec 4.7 00:16:27 10° SSW 00:19:55 24° W 00:23:22 10° NW visible
12 Dec 3.6 22:56:20 10° SE 22:59:43 23° ENE 23:02:16 14° NNE visible
13 Dec 5.5 00:33:07 10° SW 00:35:30 15° W 00:37:53 10° WNW visible
13 Dec 3.0 23:11:17 10° SE 23:15:15 37° ENE 23:18:12 16° NNE visible
